Weather in Zinjibar

Yemen     13°07′48″N   45°22′47″E
temp.,
°C
wind,
m/s
gust,
m/s
humid.,
%
clouds,
%
prec.,
mm/h
press.,
hPa
HPBL,
m
13 may, thu
thu1300:00+31ssw115010 0.0 100643
03:00+30nnw01525 0.0 100511
06:00+30ssw225028 0.0 100626
09:00+33ssw334099 0.0 1007678
12:00+36ssw5534100 0.0 10051134
15:00+35s653880 0.0 1003882
18:00+33ssw334489 0.0 1004486
21:00+33s1148100 0.0 1005137
14 may, fri
fri1400:00+32s22505 0.0 1004103
03:00+31nne115114 0.0 100319
06:00+31ese225197 0.0 100428
09:00+34ese444357 0.0 1006556
12:00+35e4343100 0.0 1004716
15:00+35se434899 0.0 1002741
18:00+34se21525 0.0 1002443
21:00+33e11571 0.0 1003132
15 may, sat
sat1500:00+31e23615 0.0 1002108
03:00+30ese126810 0.0 1002105
06:00+30ene336896 0.0 1003123
09:00+33ene445314 0.0 1005461
12:00+35ese545089 0.0 1003589
15:00+35se425337 0.0 1001780
18:00+34n1354100 0.0 1002598
21:00+34ene1250100 0.0 1002193
16 may, sun
sun1600:00+31ese346735 0.0 1002129
03:00+30s227381 0.0 1002114
06:00+30sw1177100 0.0 1004115
09:00+34ese325421 0.0 1005550
12:00+35se54516 0.0 1003755
15:00+35sse534998 0.0 1001831
18:00+34ese2151100 0.0 1002478
21:00+33sse115461 0.0 1003122
17 may, mon
mon1700:00+32se2258100 0.0 100284
03:00+31ene336262 0.0 1002116
06:00+30e126441 0.0 100482
09:00+34se214896 0.0 1005483
12:00+36ese53396 0.0 1004761
15:00+36se654492 0.0 1002687
18:00+34ssw225063 0.0 1003470
21:00+33e335519 0.0 1004151